Dewpoint
-3 -1 1 5 6 10 12 9 3 4 6 5 5 3 8 8 8 15 12 11 12 10 9 2 -8 -19 -22 -21 -18 -14 -12 -12 -11 -11 -10 -10 -10 -11 -11 -14 -15 -16 -16 -14 -17 -21 -24 -26 -27
-0 0 6 4 9 15 14 9 7 3 6 6 6 4 5 10 11 12 12 11 11 9 7 -5 -13 -21 -21 -19 -16 -14 -12 -11 -10 -10 -10 -10 -11 -12 -12 -14 -16 -17 -19 -21 -21 -24 -25 -26 -27
4 3 3 5 8 15 15 13 7 5 5 5 6 6 7 10 11 11 11 11 10 9 6 -9 -19 -21 -20 -18 -15 -12 -11 -10 -10 -10 -10 -11 -11 -12 -12 -14 -15 -17 -19 -21 -23 -25 -26 -27 -28
5 4 3 6 7 4 2 3 4 5 5 4 6 8 8 10 11 11 11 11 8 8 5 -14 -19 -19 -18 -16 -13 -11 -10 -10 -10 -10 -10 -11 -11 -12 -12 -14 -16 -18 -20 -23 -24 -26 -27 -28 -29
5 4 6 6 8 11 8 1 1 4 3 4 5 8 9 10 11 10 11 9 7 8 -1 -15 -17 -18 -17 -14 -12 -11 -10 -10 -10 -10 -10 -10 -10 -12 -12 -14 -17 -19 -20 -23 -26 -28 -29 -30 -30
3 3 4 5 9 8 7 4 1 2 4 6 7 9 9 11 10 11 10 7 7 7 -1 -11 -15 -16 -16 -13 -11 -10 -10 -10 -9 -10 -10 -10 -9 -11 -12 -14 -17 -21 -23 -26 -28 -28 -30 -30 -31
4 4 5 6 8 5 6 1 -0 2 4 6 5 9 10 10 11 10 9 7 7 6 3 -5 -11 -14 -13 -11 -10 -10 -10 -10 -10 -9 -9 -9 -7 -9 -11 -15 -17 -20 -22 -26 -26 -27 -29 -30 -27
3 3 3 2 7 9 3 -1 0 1 5 5 5 9 10 10 10 9 8 7 7 7 6 5 -2 -8 -9 -9 -10 -10 -10 -9 -8 -7 -8 -6 -4 -6 -10 -9 -10 -11 -13 -16 -16 -16 -18 -16 -11
1 3 3 3 3 4 3 3 2 2 5 5 6 7 9 10 10 9 8 7 7 7 8 7 6 4 -0 -7 -7 -7 -7 -6 -5 -4 -3 -2 -5 -6 -6 -5 -6 -7 -7 -7 -7 -7 -9 -8 -8
-1 3 1 1 -1 1 1 -1 2 1 4 7 7 9 10 10 9 9 7 7 7 7 7 7 7 6 3 1 -3 -2 -2 -2 -3 -6 -3 -3 -2 -3 -3 -4 -5 -5 -6 -6 -6 -7 -8 -8 -9
-1 2 -2 -3 -2 -4 -4 -4 -1 -1 4 8 8 9 10 10 9 8 7 7 7 7 6 5 5 6 2 -1 -2 -2 -2 -2 -2 -4 -6 -2 -3 -3 -3 -4 -5 -6 -6 -7 -7 -9 -9 -9 -9
-3 -3 -3 -4 -4 -4 -5 -2 -2 2 6 6 8 9 10 9 9 8 7 7 7 6 5 4 5 5 1 -1 -1 -2 -2 -2 -2 -2 -4 -8 -4 -4 -5 -4 -4 -5 -6 -7 -7 -8 -9 -9 -10
-5 -5 -5 -5 -4 -4 0 -0 5 5 6 8 8 9 9 9 9 8 7 7 7 6 4 4 4 4 1 -0 -1 -1 -1 -3 -2 -2 -3 -3 -6 -3 -4 -4 -4 -5 -6 -7 -7 -8 -8 -9 -10
-7 -8 -6 -5 -5 -4 0 0 5 5 4 5 7 9 9 9 9 7 6 7 7 6 5 4 4 3 2 0 0 -0 -2 -2 -2 -1 -1 -3 -4 -6 -6 -4 -4 -5 -6 -7 -7 -7 -9 -9 -10
-9 -6 -7 -7 -6 -4 2 2 5 5 4 4 6 8 8 8 8 8 7 7 6 6 5 4 3 3 2 0 -0 -1 -2 -2 -2 -2 -2 -2 -2 -4 -9 -5 -6 -5 -9 -7 -7 -8 -8 -8 -8
-6 -4 -2 -6 -3 3 3 5 3 2 2 4 6 7 8 8 8 8 7 7 6 4 4 2 2 2 2 0 -0 -1 -3 -3 -1 -2 -2 -1 -3 -4 -10 -7 -7 -7 -8 -8 -7 -7 -6 -6 -7
-7 -3 -5 -2 -0 2 4 1 1 0 1 4 5 6 7 8 8 8 7 6 4 3 2 1 2 2 1 0 -1 -4 -1 0 0 -1 -2 -3 -5 -5 -8 -7 -7 -7 -7 -8 -7 -6 -6 -6 -7
-6 -8 -4 -2 0 -0 0 1 -1 0 2 3 4 6 7 7 7 7 6 3 2 2 2 2 2 2 -1 -2 -1 -1 2 0 -3 -3 -3 -6 -5 -5 -7 -7 -7 -7 -7 -7 -6 -6 -6 -7 -7
-8 -7 -6 -1 0 1 0 2 1 1 2 4 4 4 5 6 6 5 3 2 2 2 2 1 1 -0 -1 -2 -2 3 -1 -3 -3 -4 -5 -5 -5 -7 -7 -7 -7 -7 -6 -6 -6 -6 -6 -7 -7
-6 -5 -7 -9 -10 -5 1 2 1 1 2 3 3 4 4 5 4 4 3 3 2 1 1 0 -0 -2 -3 -0 0 -3 -4 -4 -4 -5 -8 -7 -7 -7 -6 -6 -6 -6 -6 -7 -6 -7 -7 -7 -8
-7 -7 -8 -8 -9 -9 -1 3 2 1 1 2 2 3 4 4 4 3 3 2 1 0 -1 -1 -3 -3 1 -2 -4 -4 -5 -5 -5 -8 -9 -9 -8 -7 -6 -6 -6 -6 -6 -6 -7 -7 -7 -7 -7
-8 -11 -11 -8 -7 -6 -9 5 4 2 2 2 2 2 3 3 4 3 2 1 0 -1 -2 -2 -1 -1 -4 -3 -3 -4 -6 -8 -8 -8 -8 -8 -9 -8 -8 -7 -6 -6 -7 -6 -7 -7 -7 -8 -6
-10 -12 -9 -8 -7 -5 -7 7 7 1 2 2 2 2 3 3 3 2 1 -0 -1 -2 -0 -1 -2 -4 -2 -2 -6 -7 -6 -7 -8 -8 -8 -9 -10 -10 -9 -7 -7 -7 -6 -6 -7 -7 -8 -7 -6
-11 -10 -9 -7 -6 -2 -5 -2 5 3 2 2 1 2 2 2 2 1 -0 -1 -2 -0 -1 -2 -3 -1 -1 -4 -5 -6 -9 -8 -8 -9 -9 -9 -9 -9 -9 -9 -7 -7 -7 -7 -7 -7 -7 -7 -7
-10 -7 -3 -1 -0 -0 -3 4 4 2 1 1 1 2 1 1 0 -1 -1 -2 -0 -0 -2 -3 -2 -1 -4 -5 -6 -7 -7 -8 -9 -8 -8 -8 -8 -8 -8 -8 -7 -7 -7 -7 -7 -7 -7 -7 -7
-6 -6 -1 1 -0 -0 -0 6 5 1 1 1 1 1 1 1 -0 -1 -1 -1 -0 -1 -2 -2 -0 -3 -5 -6 -7 -7 -7 -7 -8 -8 -7 -8 -7 -7 -7 -8 -7 -7 -8 -8 -7 -7 -8 -7 -8
-5 -6 -6 -2 -2 -1 4 4 3 1 1 1 1 1 1 0 -0 -1 -1 -1 -1 -2 -1 0 -2 -4 -5 -7 -7 -8 -7 -8 -8 -7 -8 -8 -8 -7 -7 -7 -8 -8 -9 -9 -7 -9 -8 -9 -9
-7 -6 -3 1 5 8 6 6 5 3 3 2 2 1 1 0 -0 -0 -1 -1 -2 -1 -0 -1 -3 -4 -6 -7 -7 -7 -7 -8 -8 -8 -9 -9 -9 -9 -9 -9 -9 -9 -8 -8 -9 -9 -9 -9 -10
-4 -1 -2 -4 -3 -0 1 6 2 3 3 3 2 1 1 0 -0 -0 -1 -1 -2 -2 -0 -1 -2 -5 -6 -8 -8 -8 -7 -9 -9 -10 -10 -10 -11 -10 -10 -10 -9 -9 -9 -9 -8 -8 -9 -11 -10
-6 -4 -4 -0 -0 0 0 8 2 2 2 2 2 1 1 1 0 -0 -1 -2 -2 -0 -0 -1 -3 -5 -7 -9 -9 -8 -8 -10 -11 -12 -12 -11 -11 -11 -11 -10 -10 -10 -9 -9 -9 -10 -14 -10 -9
Wind_Speed
8 6 5 9 5 4 7 9 19 17 14 15 15 12 18 15 7 6 15 16 15 11 12 12 8 6 6 6 5 5 7 7 8 10 12 13 14 15 16 17 17 17 17 17 19 20 18 17 17
7 9 5 9 6 6 9 11 15 14 17 13 12 10 13 7 8 16 17 13 9 12 14 13 9 7 7 6 5 5 5 6 8 10 12 13 14 15 17 17 17 18 19 19 19 20 19 18 18
13 10 12 6 11 8 8 21 18 14 11 8 10 13 9 6 11 17 11 17 18 14 14 13 10 9 8 6 5 4 5 6 8 10 11 12 14 15 17 18 18 18 19 20 20 20 19 19 18
5 8 14 9 17 11 8 15 17 12 9 6 13 11 10 8 14 15 21 22 19 17 13 13 11 9 8 6 4 3 4 6 8 9 11 13 14 15 17 18 19 19 20 21 20 20 20 19 18
9 13 12 19 10 6 33 11 7 11 8 9 4 11 12 12 14 21 26 22 21 18 15 14 11 10 8 6 3 3 5 7 9 10 12 14 15 16 17 18 19 20 20 19 18 18 18 18 17
11 14 14 11 4 3 16 23 6 10 11 11 23 16 9 16 20 24 24 22 20 17 16 14 12 9 8 5 3 3 5 7 9 11 13 14 14 15 16 18 19 20 19 18 17 18 17 17 16
16 12 18 20 7 10 8 16 6 3 7 13 15 12 16 18 20 24 23 23 19 16 15 13 11 10 7 4 1 2 5 7 9 11 13 13 14 16 16 19 19 19 18 18 17 18 17 16 15
19 13 25 23 7 22 14 4 2 6 13 13 11 8 14 24 25 24 22 20 18 15 14 10 8 9 7 5 1 3 5 8 9 11 15 14 16 14 20 18 21 20 21 21 22 22 20 16 20
19 14 16 10 16 8 9 26 6 4 11 15 10 11 22 33 30 26 23 19 18 15 13 11 6 6 1 3 4 5 8 9 13 14 14 13 11 15 12 22 24 25 26 25 26 24 24 20 14
19 13 22 10 17 9 20 16 10 1 18 20 7 20 31 30 29 27 23 20 17 15 14 11 11 8 5 2 8 11 12 10 9 9 9 12 14 16 16 17 20 20 20 15 17 16 16 16 17
20 17 21 12 7 16 16 13 9 6 14 11 18 27 29 27 25 22 20 18 17 15 14 13 13 8 7 3 8 6 4 7 11 14 10 10 12 15 15 14 15 15 12 15 17 14 18 18 18
18 22 26 25 14 7 14 14 15 22 9 9 22 26 26 24 21 19 18 18 18 16 14 12 11 12 8 4 5 2 1 2 7 14 13 11 6 14 11 13 14 15 17 16 18 15 19 16 15
19 19 20 23 15 19 12 17 29 34 29 27 22 22 23 22 20 17 16 16 17 16 14 11 11 9 9 6 4 2 2 6 7 7 14 16 12 16 12 11 14 14 19 15 18 18 18 18 16
23 21 18 17 19 20 9 13 10 14 13 19 8 9 12 16 15 15 14 16 16 17 14 12 9 6 7 8 5 4 5 4 5 14 18 18 17 17 14 12 15 16 20 15 17 19 18 17 16
23 18 17 21 24 18 14 13 14 3 7 10 16 14 13 13 12 13 13 17 16 14 13 10 8 7 5 4 7 1 4 8 9 16 15 21 19 18 16 10 15 19 19 15 17 18 17 16 17
16 16 16 19 15 16 8 9 10 19 7 22 18 15 13 14 13 15 16 15 12 13 12 8 7 5 7 5 7 4 8 5 9 5 9 15 16 19 17 10 14 21 14 15 17 18 19 18 17
15 17 23 10 4 12 17 14 5 9 8 21 20 15 16 16 17 15 13 12 13 12 12 8 6 5 4 4 3 4 8 11 11 9 7 16 10 16 17 11 15 18 15 15 17 20 18 20 19
17 19 8 11 7 10 13 13 11 16 17 22 22 18 16 15 14 14 14 14 12 12 10 8 5 3 4 7 6 11 16 15 14 6 15 17 13 13 15 11 13 15 15 16 18 20 19 18 21
15 15 10 11 14 18 18 12 18 20 19 19 19 18 18 19 15 16 15 13 14 11 8 6 5 4 5 4 8 16 13 7 7 8 15 13 15 17 15 15 14 14 14 16 17 18 20 21 20
11 15 15 16 17 4 17 20 18 20 24 20 19 20 20 16 17 14 14 13 11 10 7 7 7 4 2 6 10 11 14 9 10 8 10 9 18 22 15 17 15 15 15 15 18 19 21 20 20
11 14 15 18 15 12 16 16 18 19 21 18 18 17 17 16 15 14 13 12 11 10 7 4 1 5 8 10 10 9 10 12 6 10 11 17 15 17 17 16 16 15 15 17 19 19 20 23 21
15 14 13 11 11 13 15 2 14 15 14 14 16 16 15 13 14 13 13 12 11 9 3 6 5 7 9 11 11 10 9 9 9 9 13 14 16 16 16 17 19 16 17 17 20 19 20 21 23
16 13 8 14 14 16 19 9 7 10 13 11 14 14 13 13 14 13 14 11 9 9 7 5 5 9 11 13 12 9 8 7 9 13 13 13 13 14 15 16 20 18 18 19 20 20 22 21 21
8 13 11 15 13 13 18 4 8 5 10 12 14 13 13 14 14 15 12 11 10 8 5 4 8 12 13 15 12 11 13 13 13 15 14 15 14 15 16 21 19 20 19 21 20 21 21 24 24
9 9 9 11 11 7 9 12 10 10 11 11 12 11 13 15 14 12 11 11 8 6 4 6 11 14 16 11 12 13 12 11 12 14 14 16 17 18 19 21 22 21 21 21 22 22 24 25 26
10 11 8 15 11 6 1 10 7 11 12 12 11 12 13 12 11 11 11 9 7 5 5 6 10 14 9 11 11 12 13 13 12 15 16 16 18 19 20 23 21 21 22 22 22 25 26 23 28
5 6 6 8 11 10 8 12 17 17 12 11 12 12 12 12 12 11 10 7 6 4 3 10 13 9 10 11 12 13 13 14 16 16 16 17 19 19 21 21 22 22 22 22 25 29 26 28 27
7 4 6 3 4 5 8 11 7 8 11 10 11 11 11 11 11 10 9 8 6 3 8 10 11 8 10 11 12 13 14 15 16 16 18 19 20 21 21 22 23 23 23 24 28 27 27 29 26
5 7 7 7 7 5 4 6 9 9 9 10 10 10 10 10 10 9 8 6 6 3 9 11 7 9 10 12 13 14 15 15 16 16 18 20 20 21 22 23 23 23 24 24 24 26 33 33 27
3 8 8 5 12 9 6 5 8 9 10 11 10 10 9 9 9 8 9 6 1 6 10 7 8 9 11 12 13 14 15 16 17 18 19 20 21 21 22 23 24 24 25 24 23 30 45 32 29
Wind_Direction
254 208 148 222 266 276 346 294 348 79 85 74 66 65 91 46 22 104 156 191 183 195 164 166 158 143 138 134 119 90 67 49 36 27 22 15 11 6 4 3 1 358 358 357 355 354 354 352 349
223 170 231 273 240 73 305 296 297 69 94 103 69 81 66 83 73 136 148 187 186 155 157 158 150 153 151 143 116 88 62 40 29 19 14 12 7 3 1 1 358 354 354 354 353 352 351 350 348
172 209 263 225 238 181 189 230 233 104 115 98 105 63 50 86 116 136 169 158 133 142 164 151 156 161 155 137 116 87 53 33 23 17 12 8 3 1 358 358 355 353 353 353 353 351 350 349 347
153 218 252 253 259 338 78 97 118 122 96 74 120 89 84 97 137 168 147 136 146 165 175 156 160 162 153 143 125 81 43 25 21 16 7 3 1 358 356 355 352 351 353 354 351 348 347 347 345
258 262 258 260 340 25 297 74 92 120 113 97 73 81 101 122 148 143 137 150 158 181 168 160 165 162 157 156 124 62 28 19 16 10 5 2 358 356 353 352 352 353 351 348 349 351 348 346 345
241 250 272 268 51 272 6 331 13 100 99 105 111 111 108 142 142 143 145 153 174 183 163 160 166 167 168 160 111 43 19 14 11 8 4 358 354 354 351 356 354 353 350 351 352 351 348 347 347
256 282 286 289 178 160 201 235 40 66 138 148 132 120 141 153 153 146 154 160 175 165 167 164 166 170 172 159 121 20 15 16 14 9 5 358 351 353 360 356 356 353 350 353 353 353 351 349 348
249 269 285 283 87 320 322 324 134 52 79 115 138 155 170 166 156 154 153 154 153 163 163 167 163 157 161 150 114 27 29 29 19 17 13 13 17 353 343 357 357 359 356 359 1 5 4 12 6
260 277 275 30 335 145 334 295 122 105 131 73 62 44 155 160 153 156 156 155 153 154 148 159 132 108 145 133 41 41 29 27 21 19 18 1 342 353 1 349 357 356 3 2 354 346 0 353 341
235 256 266 70 303 279 216 207 145 62 140 97 35 116 140 148 157 159 161 160 159 159 157 155 156 164 78 37 28 20 17 16 4 11 18 0 7 342 357 345 353 357 348 353 341 345 338 328 337
238 250 273 285 261 300 307 313 20 287 64 147 159 142 147 151 159 163 165 165 165 163 161 162 163 167 135 227 57 61 25 29 345 345 21 359 8 327 343 344 341 336 335 333 337 344 322 337 337
261 262 277 291 295 298 309 341 321 17 79 110 171 151 150 153 163 169 168 167 165 161 162 170 165 165 169 99 123 48 78 50 321 355 351 355 344 327 353 332 343 336 324 340 329 339 318 336 339
257 265 275 292 298 306 351 324 67 60 45 76 116 147 151 158 166 171 171 162 162 158 162 170 170 169 171 141 191 176 95 345 39 304 328 342 341 325 353 354 334 335 313 334 334 332 332 336 332
287 299 280 280 289 301 295 298 95 114 108 74 62 157 153 151 161 160 162 155 156 160 157 168 157 156 126 196 150 57 45 35 284 318 346 347 342 340 343 359 333 325 316 346 336 325 334 330 327
276 282 284 277 274 256 17 275 64 84 211 198 168 147 146 147 153 152 158 147 154 148 155 150 150 144 161 84 66 83 306 348 354 31 354 326 335 335 339 351 333 309 331 348 326 327 324 332 325
277 265 265 265 317 52 54 264 183 199 194 135 121 129 130 127 133 132 135 134 144 152 140 130 150 139 143 129 162 241 329 12 19 351 303 301 328 324 331 357 325 311 356 340 328 327 330 334 333
259 258 258 304 190 130 201 266 97 253 123 124 119 118 117 118 112 115 118 137 145 127 129 146 121 110 100 154 294 342 353 337 335 347 311 303 328 316 328 353 323 335 344 336 322 327 341 332 336
248 253 292 262 34 341 328 81 52 69 75 114 109 111 113 119 110 116 128 130 123 116 130 124 135 152 21 40 357 343 336 353 17 339 308 326 317 327 339 342 331 341 334 326 335 336 332 335 336
277 294 283 164 184 217 242 93 58 35 108 104 114 114 116 108 115 120 118 116 117 119 118 112 97 118 186 215 313 338 354 10 293 305 325 330 322 334 348 331 343 332 341 337 332 334 330 335 336
304 302 300 296 290 113 105 89 79 61 38 79 97 106 106 114 119 112 115 112 116 120 108 142 176 201 255 345 355 10 14 12 337 5 349 323 331 334 342 339 341 335 338 337 329 334 333 333 331
273 270 279 281 303 310 123 111 96 86 78 74 81 99 110 123 124 125 119 121 112 116 133 206 142 48 8 4 10 23 24 1 321 328 322 319 331 333 336 332 340 337 335 333 328 333 331 329 323
284 295 314 312 295 280 282 131 102 97 92 84 89 98 107 122 129 128 123 120 130 116 116 88 67 20 18 10 10 11 28 356 349 327 326 350 334 333 335 323 335 339 328 327 328 325 326 326 320
269 288 306 293 284 288 276 110 198 132 105 95 92 97 110 124 126 125 125 120 108 95 95 80 31 23 13 13 14 20 0 351 346 340 347 332 337 331 332 321 331 329 330 325 322 324 323 318 310
307 288 279 271 261 262 265 264 146 80 92 110 98 107 117 118 120 119 119 117 109 111 89 56 29 16 16 23 14 5 6 7 1 338 344 333 338 337 331 317 336 329 325 322 323 320 316 310 304
231 263 273 260 234 248 20 72 91 88 60 88 116 123 119 119 121 126 127 122 121 91 76 25 19 17 29 15 6 8 6 356 358 344 342 351 335 337 328 330 330 333 327 323 319 316 312 311 304
296 237 256 303 311 323 24 134 101 101 104 105 112 116 117 120 127 130 129 121 117 109 61 34 12 37 12 6 11 3 357 356 351 347 346 343 337 332 336 328 334 326 323 323 320 312 314 308 311
319 259 330 306 293 277 91 106 137 133 118 111 112 114 116 124 130 128 122 120 119 108 52 19 49 12 8 7 5 355 357 353 352 352 340 338 332 341 331 334 328 327 326 325 317 321 317 315 314
278 340 307 53 328 14 113 103 107 86 113 117 109 110 118 126 129 129 123 125 124 100 20 37 39 7 4 4 0 357 355 358 350 346 342 340 343 338 339 337 336 338 338 329 330 329 324 318 313
346 33 347 336 305 311 314 83 53 66 72 97 104 117 127 132 133 132 123 130 127 54 36 39 12 3 4 2 1 355 356 353 348 343 343 341 342 344 345 342 340 339 334 333 332 319 323 324 319
21 24 355 348 328 325 308 80 69 75 89 105 107 112 121 129 135 131 134 128 108 30 48 19 8 4 5 360 359 350 351 351 349 346 346 344 345 349 346 342 343 339 337 341 318 324 334 325 320
Height
1515 1516 1518 1523 1525 1512 1526 1508 1478 1476 1485 1495 1498 1498 1510 1515 1518 1532 1536 1535 1536 1537 1540 1542 1544 1545 1546 1547 1548 1548 1548 1548 1548 1548 1547 1547 1546 1544 1543 1541 1540 1538 1536 1534 1532 1530 1528 1526 1524
1514 1516 1520 1518 1518 1546 1541 1513 1498 1485 1490 1497 1499 1499 1506 1520 1524 1529 1533 1535 1537 1537 1539 1541 1543 1545 1546 1546 1547 1548 1548 1548 1548 1548 1548 1547 1545 1544 1542 1541 1539 1537 1535 1533 1531 1529 1527 1525 1523
1515 1519 1519 1508 1500 1537 1549 1523 1502 1491 1492 1493 1500 1505 1510 1523 1527 1529 1530 1534 1539 1540 1539 1541 1543 1544 1545 1546 1547 1548 1548 1549 1548 1548 1547 1546 1545 1543 1542 1540 1539 1537 1535 1532 1530 1528 1526 1524 1522
1515 1519 1516 1503 1491 1479 1479 1481 1489 1491 1491 1494 1498 1510 1519 1523 1526 1525 1529 1536 1540 1539 1539 1541 1543 1544 1545 1546 1548 1548 1549 1549 1548 1547 1547 1546 1545 1543 1542 1540 1538 1536 1534 1531 1529 1527 1525 1523 1521
1516 1512 1505 1497 1502 1524 1502 1480 1483 1483 1486 1493 1496 1512 1520 1525 1524 1525 1531 1537 1538 1536 1538 1539 1542 1543 1545 1546 1548 1548 1549 1548 1548 1547 1547 1546 1545 1543 1541 1539 1538 1535 1533 1531 1529 1526 1524 1522 1520
1516 1506 1503 1497 1509 1517 1498 1487 1482 1483 1487 1493 1499 1511 1522 1524 1523 1527 1533 1536 1536 1535 1537 1539 1541 1543 1545 1547 1548 1548 1548 1548 1548 1547 1546 1545 1544 1543 1541 1539 1536 1534 1532 1530 1527 1525 1523 1521 1519
1513 1505 1498 1494 1499 1494 1496 1483 1481 1483 1484 1490 1495 1505 1521 1525 1527 1531 1533 1535 1534 1536 1537 1539 1541 1543 1545 1546 1547 1548 1548 1548 1547 1547 1546 1545 1543 1541 1540 1538 1536 1534 1531 1529 1527 1524 1522 1520 1518
1510 1503 1495 1479 1501 1529 1492 1484 1482 1483 1488 1491 1495 1503 1515 1520 1526 1532 1535 1536 1536 1538 1539 1540 1542 1543 1545 1546 1547 1547 1547 1548 1547 1547 1546 1544 1542 1542 1538 1538 1536 1534 1530 1527 1526 1523 1521 1519 1516
1508 1504 1494 1497 1496 1507 1502 1487 1480 1482 1487 1493 1498 1499 1501 1512 1522 1530 1536 1539 1540 1542 1543 1544 1544 1545 1546 1547 1547 1548 1548 1547 1547 1546 1547 1547 1545 1543 1541 1537 1534 1532 1529 1526 1525 1524 1522 1520 1517
1502 1500 1487 1490 1486 1492 1483 1485 1475 1478 1482 1495 1509 1503 1507 1515 1524 1530 1536 1541 1543 1545 1547 1548 1549 1549 1549 1549 1549 1549 1549 1550 1550 1549 1548 1548 1547 1545 1543 1540 1536 1533 1531 1531 1528 1526 1523 1520 1517
1495 1494 1482 1482 1489 1487 1482 1478 1476 1476 1483 1497 1506 1505 1513 1519 1528 1533 1538 1541 1544 1546 1550 1551 1552 1552 1554 1552 1553 1555 1555 1554 1551 1549 1548 1548 1548 1545 1543 1541 1540 1536 1533 1529 1527 1525 1521 1518 1516
1492 1487 1484 1481 1483 1485 1483 1481 1480 1477 1491 1495 1507 1509 1515 1522 1530 1535 1538 1541 1543 1546 1550 1552 1553 1554 1554 1555 1556 1555 1555 1555 1552 1549 1547 1546 1544 1542 1540 1539 1539 1535 1531 1528 1525 1523 1520 1517 1515
1487 1485 1482 1481 1481 1482 1483 1484 1494 1498 1506 1510 1515 1519 1516 1521 1526 1533 1539 1542 1546 1548 1551 1552 1552 1554 1554 1556 1555 1555 1555 1554 1553 1550 1546 1544 1543 1541 1539 1537 1537 1533 1528 1525 1525 1522 1517 1516 1514
1486 1484 1482 1482 1480 1482 1484 1485 1487 1499 1505 1500 1517 1526 1525 1524 1531 1535 1539 1542 1546 1548 1551 1552 1553 1554 1555 1554 1554 1554 1554 1554 1551 1549 1546 1545 1542 1538 1539 1536 1535 1531 1526 1525 1523 1520 1516 1514 1512
1490 1488 1484 1481 1478 1475 1483 1487 1494 1506 1500 1500 1507 1518 1523 1526 1532 1536 1540 1543 1546 1549 1551 1554 1555 1556 1555 1554 1555 1554 1553 1553 1551 1548 1548 1546 1544 1538 1538 1535 1532 1529 1526 1523 1522 1517 1516 1511 1509
1488 1486 1492 1475 1473 1487 1491 1504 1490 1499 1497 1498 1507 1516 1523 1526 1533 1537 1541 1545 1549 1549 1552 1556 1557 1556 1556 1555 1554 1553 1553 1550 1548 1548 1547 1543 1542 1539 1537 1532 1530 1527 1524 1523 1519 1517 1513 1509 1507
1488 1496 1483 1481 1482 1486 1499 1492 1497 1494 1495 1501 1510 1518 1524 1531 1534 1539 1545 1548 1549 1551 1555 1557 1558 1558 1557 1555 1554 1553 1551 1548 1546 1544 1545 1544 1541 1538 1535 1532 1529 1527 1523 1521 1518 1516 1512 1508 1504
1491 1484 1483 1486 1486 1487 1493 1496 1493 1492 1496 1501 1512 1521 1529 1534 1539 1544 1548 1549 1551 1555 1557 1558 1558 1558 1557 1554 1552 1551 1549 1548 1546 1546 1543 1542 1540 1538 1533 1531 1527 1525 1522 1520 1517 1514 1511 1507 1503
1476 1476 1480 1479 1477 1484 1496 1499 1501 1504 1502 1510 1518 1523 1530 1538 1544 1548 1549 1551 1554 1557 1558 1559 1559 1559 1557 1556 1554 1552 1550 1547 1549 1547 1542 1541 1538 1535 1531 1528 1525 1524 1522 1519 1516 1512 1508 1505 1502
1480 1483 1483 1474 1468 1475 1490 1509 1515 1517 1519 1520 1526 1530 1535 1543 1548 1551 1553 1555 1557 1559 1560 1559 1558 1558 1557 1556 1553 1551 1550 1548 1548 1547 1545 1541 1537 1533 1530 1527 1525 1523 1521 1518 1515 1511 1507 1504 1501
1482 1486 1484 1482 1470 1469 1484 1515 1516 1521 1525 1532 1534 1537 1540 1547 1551 1554 1556 1557 1559 1561 1559 1559 1559 1558 1556 1554 1552 1550 1550 1549 1549 1546 1544 1540 1537 1533 1530 1527 1524 1522 1520 1517 1513 1510 1506 1502 1499
1489 1473 1475 1478 1483 1494 1466 1515 1518 1523 1533 1538 1537 1540 1544 1550 1553 1555 1557 1559 1560 1560 1560 1560 1560 1558 1556 1554 1552 1550 1550 1550 1548 1545 1542 1540 1537 1534 1530 1526 1524 1521 1518 1515 1511 1508 1505 1501 1496
1483 1474 1478 1479 1482 1480 1474 1531 1529 1516 1533 1540 1540 1544 1548 1551 1554 1557 1559 1561 1561 1562 1562 1561 1560 1559 1557 1554 1552 1550 1549 1548 1546 1544 1542 1539 1536 1533 1530 1526 1522 1519 1516 1513 1509 1506 1502 1499 1494
1475 1479 1479 1478 1479 1494 1474 1481 1528 1525 1531 1539 1543 1548 1551 1552 1555 1558 1560 1562 1564 1564 1563 1562 1561 1559 1557 1554 1553 1551 1549 1548 1546 1543 1541 1537 1535 1532 1529 1524 1521 1517 1514 1510 1507 1503 1500 1495 1492
1478 1486 1502 1499 1494 1493 1470 1509 1529 1535 1536 1540 1549 1553 1552 1553 1556 1560 1562 1564 1565 1565 1564 1563 1561 1559 1557 1557 1554 1552 1550 1548 1545 1542 1539 1536 1533 1529 1526 1522 1519 1515 1512 1508 1504 1500 1496 1492 1488
1476 1478 1494 1509 1500 1489 1481 1524 1539 1541 1547 1549 1553 1554 1553 1555 1558 1560 1563 1565 1566 1566 1565 1564 1562 1561 1560 1557 1555 1553 1550 1547 1545 1541 1538 1535 1532 1528 1525 1520 1517 1513 1509 1505 1501 1496 1492 1488 1485
1476 1482 1469 1484 1478 1486 1516 1527 1532 1536 1545 1549 1550 1552 1553 1556 1558 1561 1564 1566 1567 1566 1565 1564 1563 1563 1560 1558 1556 1553 1550 1547 1544 1541 1538 1534 1530 1527 1523 1519 1514 1510 1506 1502 1497 1493 1489 1485 1480
1477 1473 1488 1491 1515 1533 1522 1522 1528 1529 1538 1545 1549 1552 1554 1557 1560 1563 1565 1567 1567 1567 1566 1565 1564 1564 1561 1559 1556 1553 1550 1547 1544 1541 1537 1533 1529 1525 1521 1517 1512 1508 1504 1500 1494 1489 1485 1480 1476
1482 1487 1484 1484 1487 1502 1508 1536 1531 1536 1539 1545 1550 1553 1555 1558 1561 1564 1567 1568 1567 1567 1567 1566 1566 1564 1562 1559 1557 1554 1551 1547 1544 1541 1537 1532 1528 1524 1520 1516 1511 1507 1502 1498 1493 1486 1481 1475 1470
1482 1489 1490 1505 1505 1497 1499 1544 1538 1541 1544 1548 1552 1554 1557 1560 1562 1565 1567 1568 1568 1568 1568 1568 1567 1565 1563 1561 1558 1554 1551 1547 1544 1540 1536 1532 1528 1524 1520 1515 1511 1506 1501 1496 1489 1484 1477 1469 1464